INTELSAT 22 (IS-22)

Last updated on Tue Sep 22 2026 00:03:12 GMT+0000 (Coordinated Universal Time)

1 38098U 12011A 26264.57469773 -.00000062 00000+0 00000+0 0 9998 2 38098 0.0140 213.8443 0001633 322.5276 103.0888 1.00270434 8153
UTC large
Height (km)
Speed (km/s)
/
Latitude / Longitude
Inclination (degrees)
Orbital Period (minutes)
Azimuth
Elevation
Range (km)
Doppler Factor

Next 0 passes for location: London (51.5072 / 0.1276)

No passes found over London.
INTELSAT 22 (IS-22)